SCP
0 0 0 0 0 0 0 0 0 0 0 0 0 0 0 0 0 0 0 0 0 0 0 0 0 0 0 0 0 0 0 0 0 0 0 0 0 0 0 0 0 0 0
0 0 0 0 0 0 0 0 0 0 0 0 0 0 0 0 0 0 0 0 0 0 0 0 0 0 0 0 0 0 0 0 0 0 0 0 0 0 0 0 0 0 0
0 0 0 0 0 0 0 0 0 0 0 0 0 0 0 0 0 0 -0 0 0 0 0 0 0 0 0 0 0 0 0 0 0 0 0 0 0 0 0 0 0 0 0
0 0 0 0 0 0 0 0 0 0 0 0 0 0 0 -0 -0 -0 -0 -0 0 0 0 0 0 0 0 0 0 0 0 0 0 0 0 0 0 0 0 0 0 0 0
0 0 0 0 0 0 0 0 0 0 0 0 0 0 0 0 -0 0 0 0 0 0 0 0 0 0 0 0 0 0 0 0 0 0 0 0 0 0 0 0 0 0 0
0 0 0 0 0 0 0 0 0 0 0 0 0 0 0 0 0 0 0 0 0 0 0 0 0 0 0 0 0 0 0 0 0 0 0 0 0 0 0 0 0 0 0
0 0 0 0 0 0 0 0 0 0 0 0 0 0 0 0 0 0 0 0 0 0 0 0 0 0 0 0 0 0 0 0 0 0 0 0 0 0 0 0 0 0 0
0 0 0 0 0 0 0 0 0 0 0 0 0 0 0 0 0 0 0 0 0 0 0 0 0 0 0 0 0 0 0 0 0 0 0 0 0 0 0 0 0 0 0
0 0 0 0 0 0 0 0 0 0 0 0 0 0 0 0 0 0 0 0 0 0 0 0 0 0 0 0 0 0 0 0 0 0 0 0 0 0 0 0 0 0 0
0 0 0 0 0 0 0 0 0 0 0 0 0 0 0 0 0 0 0 0 0 0 0 0 0 0 0 0 0 0 0 0 0 0 0 0 0 0 0 0 0 0 0
0 0 0 0 0 0 0 0 0 0 0 0 0 0 0 0 0 0 0 0 0 0 0 0 0 0 0 0 0 0 0 0 0 0 0 0 0 0 0 0 0 0 0
0 0 0 0 0 0 0 0 0 0 0 0 0 0 0 0 0 0 0 0 0 0 0 0 0 0 0 0 0 0 0 0 0 0 0 0 0 0 0 0 0 0 0
0 0 0 0 0 0 0 0 0 0 0 0 0 0 0 0 0 0 0 0 0 0 0 0 0 0 0 0 0 0 0 0 0 0 0 0 0 0 0 0 0 0 0
0 0 0 0 0 0 0 0 0 0 0 0 0 0 0 0 0 0 0 0 0 0 0 0 0 0 0 0 0 0 0 0 0 0 0 0 0 0 0 0 0 0 0
0 0 0 0 0 0 0 0 0 0 0 0 0 0 0 0 0 0 0 0 0 0 0 0 0 0 0 0 0 0 0 0 0 0 0 0 0 0 0 0 0 0 0
0 0 0 0 0 0 0 0 0 0 0 0 0 0 0 0 0 0 0 0 0 0 0 0 0 0 0 0 0 0 0 0 0 0 0 0 0 0 0 0 0 0 0
0 0 0 0 0 0 0 0 0 0 0 0 0 0 0 0 0 0 0 0 0 0 0 0 0 0 0 0 0 0 0 0 0 0 0 0 0 0 0 0 0 0 0
0 0 0 0 0 0 0 0 0 0 0 0 0 0 0 0 0 0 0 0 0 0 0 0 0 0 0 0 0 0 0 0 0 0 0 0 0 0 0 0 0 0 0
0 0 0 0 0 0 0 0 0 0 0 0 0 0 0 0 0 0 0 0 0 0 0 0 0 0 0 0 0 0 0 0 0 0 0 0 0 0 0 0 -0 0 0
0 0 0 0 0 0 0 0 0 0 0 0 0 0 0 0 0 0 0 0 0 0 0 0 0 0 0 0 0 0 0 0 0 0 0 0 0 0 0 0 0 0 0
0 0 0 0 0 0 0 0 0 0 0 0 0 0 0 0 0 0 0 0 0 0 0 0 0 0 0 0 0 0 0 0 0 0 0 0 0 0 0 0 0 0 0
0 0 0 0 0 0 0 0 0 0 0 0 0 0 0 0 0 0 0 0 0 0 0 0 0 0 0 0 0 0 0 0 0 0 0 0 0 0 0 0 0 0 0
0 0 0 0 0 0 0 0 0 0 0 0 0 0 0 0 0 0 0 0 0 0 0 0 0 0 0 0 0 0 0 0 0 0 0 0 0 0 0 0 0 0 0
0 0 0 0 0 0 0 0 0 0 0 0 0 0 0 0 0 0 0 0 0 0 0 0 0 0 0 0 0 0 0 0 0 0 0 0 0 0 0 0 0 0 0
0 0 0 0 0 0 0 0 0 0 0 0 0 0 0 0 0 0 0 0 0 0 0 0 0 0 0 0 0 0 0 0 0 0 0 0 0 0 0 0 0 0 0
0 0 0 0 0 0 0 0 0 0 0 0 0 0 0 0 0 0 0 0 0 0 0 0 0 0 0 0 0 0 0 0 0 0 0 0 0 0 0 0 0 0 0
Wind_Speed
3 2 2 2 2 2 2 2 2 2 2 3 3 3 4 4 4 3 2 7 8 7 8 8 8 8 8 7 7 7 7 7 6 6 5 6 6 6 5 5 4 5 4
3 3 2 2 2 2 2 2 2 2 1 2 2 3 3 3 4 4 3 4 7 7 7 8 8 8 8 8 7 7 7 7 6 6 6 5 5 6 6 6 5 5 5
4 4 3 2 2 2 2 2 2 2 2 2 2 3 3 3 3 3 3 2 3 6 7 7 8 8 8 8 8 8 7 7 7 7 6 6 5 5 5 5 5 5 5
5 4 3 3 3 2 2 2 2 2 1 2 2 1 2 2 3 3 3 3 2 3 5 7 8 8 8 8 8 8 8 8 8 8 8 7 7 6 6 6 6 6 6
6 4 4 3 3 3 3 3 2 2 2 2 2 1 1 1 2 3 4 4 4 3 3 4 7 7 9 9 8 8 8 9 9 9 9 9 9 8 8 7 7 7 6
6 5 4 4 4 3 3 2 3 2 2 2 2 1 1 1 1 2 4 3 4 5 4 4 3 4 7 8 8 8 9 9 9 9 10 10 10 9 9 9 8 8 8
6 5 4 4 5 4 4 4 3 3 2 2 2 1 1 0 1 2 3 3 4 5 5 5 4 3 3 6 7 8 9 9 9 10 10 10 10 9 9 9 9 9 9
7 6 5 5 5 4 4 4 4 3 2 2 3 2 1 2 1 2 2 4 4 4 5 6 5 5 4 3 4 8 9 9 9 9 10 10 9 9 9 10 10 10 10
7 6 6 5 5 5 5 5 5 5 3 2 2 3 3 3 2 1 2 3 3 4 4 4 6 6 6 5 5 7 9 9 9 10 9 9 9 9 9 10 10 10 10
8 7 7 6 6 5 5 6 5 4 5 3 2 1 2 3 2 1 2 1 3 4 5 5 5 6 7 5 6 8 10 9 10 10 10 9 9 9 9 10 11 10 10
7 7 7 7 6 5 6 6 5 5 4 4 4 3 2 1 2 2 2 2 2 3 4 5 5 5 6 6 6 8 10 10 10 10 10 9 9 10 10 10 11 11 10
5 7 7 7 7 6 6 6 6 6 5 4 3 3 3 3 3 3 3 3 2 2 2 3 4 5 5 6 8 10 11 11 11 10 10 10 10 10 10 11 11 11 11
5 7 7 7 6 6 6 6 6 6 6 5 5 4 3 3 3 3 3 2 2 2 2 2 4 4 5 5 6 10 10 11 11 11 11 11 10 10 10 10 11 11 11
6 7 8 7 7 6 6 6 5 5 5 5 6 5 3 3 3 3 4 3 1 1 2 4 2 4 4 4 6 9 7 10 11 11 11 10 10 10 10 11 11 10 10
6 7 8 7 7 7 6 6 5 6 5 6 6 5 4 3 3 3 3 3 4 3 3 3 3 3 4 4 6 5 6 8 10 10 10 10 10 10 10 11 10 10 10
6 7 7 7 7 6 6 6 5 5 6 5 5 5 5 3 3 3 3 3 3 4 4 3 3 2 2 4 5 5 6 8 9 9 10 10 10 10 10 10 10 10 10
7 7 7 7 7 7 6 6 6 6 7 6 5 6 6 4 3 3 3 3 3 3 4 3 2 2 3 4 3 3 4 4 5 8 9 9 9 8 8 9 9 9 9
6 6 6 6 6 6 6 7 7 7 7 7 6 6 5 4 4 3 3 4 4 4 4 4 2 2 3 3 3 3 3 3 4 6 8 8 8 8 8 9 9 9 9
6 5 6 6 6 6 6 6 6 7 7 6 6 6 5 5 4 3 4 4 3 3 3 3 3 2 2 1 1 2 2 2 3 4 6 7 8 8 8 8 8 8 9
5 5 5 5 5 5 5 5 5 5 5 5 5 5 4 5 5 4 4 4 4 3 3 3 3 2 2 2 1 2 2 2 3 3 3 3 5 6 7 8 8 9 9
4 4 4 3 3 4 4 5 5 5 5 4 3 3 3 4 4 4 3 3 3 3 2 3 3 2 2 2 2 2 3 2 3 2 2 2 2 3 4 5 7 8 9
3 3 3 3 3 2 4 6 5 4 4 4 3 3 2 3 4 4 4 4 4 4 4 3 3 3 3 3 2 2 2 2 3 1 2 3 2 3 4 4 6 8 9
3 3 3 3 3 2 4 5 6 4 3 2 2 2 1 1 1 1 1 2 3 4 5 4 4 4 4 3 2 2 3 3 4 2 2 3 2 4 4 5 7 8 8
4 3 3 3 3 3 4 5 5 4 3 2 2 1 1 0 0 1 1 1 1 1 2 3 3 4 3 2 3 3 3 3 3 2 2 4 3 3 4 5 7 8 8
4 4 4 5 4 4 5 4 4 3 3 2 2 2 1 1 1 1 1 1 0 1 1 0 0 1 1 1 0 0 1 1 3 2 2 3 3 3 4 4 5 6 7
5 5 6 5 5 4 5 4 3 3 3 2 2 2 3 2 2 1 1 1 1 1 1 1 2 2 2 2 1 1 1 2 2 3 1 2 3 2 4 3 3 4 5
Wind_Direction
153 150 142 123 120 109 114 110 109 117 120 129 144 152 158 158 160 164 180 189 184 182 180 177 177 176 173 173 173 174 171 167 164 166 167 167 166 164 163 162 156 158 160
161 162 164 153 148 141 136 133 134 133 129 133 146 156 167 166 167 171 181 198 196 189 191 191 189 186 184 184 184 185 185 182 178 180 182 183 183 182 182 181 180 180 177
171 168 171 174 174 154 139 125 116 111 129 134 147 153 158 168 172 181 185 193 204 203 202 201 201 198 195 195 197 198 198 195 193 194 196 197 197 195 196 197 199 198 196
175 169 175 187 173 151 146 142 132 124 127 135 140 151 155 170 183 190 195 200 205 216 218 215 209 207 208 210 211 210 209 207 205 205 207 207 207 208 209 210 212 211 210
179 175 180 182 164 154 159 167 140 140 151 151 146 138 147 181 198 204 208 211 210 213 217 227 221 216 219 221 223 223 219 216 214 214 216 217 217 215 216 217 218 219 219
183 177 177 174 161 155 161 159 135 118 127 145 143 106 78 189 202 217 222 219 217 218 218 221 224 227 229 230 230 231 230 226 222 223 223 224 223 220 221 223 223 224 226
179 177 181 173 169 172 174 162 138 132 121 120 100 55 11 355 221 227 225 224 225 223 216 218 220 222 231 235 235 235 236 234 229 228 227 226 227 225 224 226 229 230 230
180 185 177 178 177 169 166 167 149 138 138 147 134 115 32 333 292 229 218 222 227 221 223 222 219 220 224 228 238 242 241 239 234 230 227 226 227 226 225 226 230 232 235
186 183 179 177 180 177 179 180 168 156 157 160 154 149 156 216 277 295 244 229 221 218 226 224 223 223 223 226 234 242 242 239 235 236 232 226 225 225 227 230 233 234 236
186 184 179 183 182 181 183 185 177 166 153 162 167 174 158 155 165 273 305 270 239 229 228 229 228 225 222 224 228 232 235 234 234 237 235 229 225 225 229 234 239 241 240
191 186 182 185 185 188 188 182 171 173 169 168 170 161 144 122 146 166 245 284 277 245 231 230 232 231 225 224 229 234 232 232 234 235 236 234 231 231 233 238 244 247 247
191 192 188 188 188 186 185 184 180 180 181 175 174 170 166 168 181 178 203 236 254 267 248 233 231 231 226 224 230 231 230 230 233 233 235 236 237 237 239 243 247 249 251
194 197 191 189 188 188 185 180 181 187 184 184 188 192 191 190 167 167 175 205 238 273 286 253 234 231 229 222 232 233 233 232 233 233 236 238 239 240 242 245 248 250 253
196 189 190 189 189 187 187 181 185 192 188 193 199 192 192 196 183 181 176 169 197 266 273 266 257 232 231 224 232 231 239 235 233 232 234 237 239 240 242 242 244 247 251
194 188 188 187 189 188 187 183 191 195 189 197 199 196 198 201 195 199 188 178 176 215 252 255 252 244 230 230 234 228 234 237 233 232 232 234 237 239 242 244 243 243 245
191 183 186 188 189 189 187 186 193 196 190 198 196 196 202 202 199 199 200 200 193 195 232 246 243 253 246 242 227 226 235 238 236 234 234 236 239 241 243 245 246 245 245
186 186 185 186 190 190 187 191 201 194 195 197 196 198 205 197 195 198 195 197 203 193 225 256 248 252 247 254 251 235 238 237 240 236 236 237 239 242 243 244 246 247 248
185 184 179 183 191 192 188 192 203 198 194 196 197 195 205 197 198 202 199 208 211 206 215 244 253 242 244 254 256 253 252 244 244 241 232 234 237 240 242 244 244 244 246
178 175 176 187 192 191 189 192 195 195 193 194 190 193 200 193 207 208 207 211 213 211 211 227 249 245 255 270 271 269 268 269 260 250 237 237 240 244 246 245 243 245 248
172 177 181 186 188 186 188 185 181 179 179 182 183 187 189 194 208 208 211 216 209 203 202 219 242 251 253 259 242 251 267 258 267 271 263 257 249 248 248 247 246 247 248
169 167 166 172 175 179 184 173 173 175 175 173 174 182 189 192 201 205 211 215 205 208 211 224 242 248 248 237 239 235 251 270 267 250 260 259 255 258 261 257 254 253 254
147 141 149 157 165 176 156 158 164 170 171 173 183 188 196 207 218 217 220 215 202 205 216 220 234 240 254 247 251 238 244 258 271 235 244 269 246 262 264 262 267 265 263
123 126 140 146 138 121 133 140 147 153 151 160 174 181 205 223 201 219 225 226 226 228 215 214 230 240 248 241 230 240 236 240 254 264 233 263 245 260 268 270 264 266 266
112 109 104 103 98 79 100 124 133 136 132 138 144 160 170 187 241 209 207 222 233 249 239 226 236 250 255 250 224 236 247 257 266 259 219 259 265 270 285 279 270 268 272
98 90 85 85 84 61 60 84 118 121 119 107 91 79 89 72 8 103 169 199 116 356 10 132 213 301 335 1 72 168 247 253 270 263 212 248 271 285 282 276 276 276 278
97 92 80 74 78 66 58 74 108 110 103 86 67 54 48 43 31 102 153 164 170 314 3 37 36 9 359 11 70 194 237 260 273 275 237 252 272 287 284 269 282 291 288